Presure
122 189 157 168 142 181 173 182 177 174 181 187 212 185 205 201 208 210 208 205 231 215 229 219 230 236 242 236 210 219 212 234 227 225 228 210 218 230 211 196 201 203 192 135 146
125 174 172 166 162 177 171 167 170 177 181 190 206 192 205 192 194 202 208 205 223 219 210 230 229 230 243 209 235 243 237 253 214 223 268 226 230 217 247 227 206 197 195 196 193
184 146 170 168 162 170 172 179 169 176 179 184 194 196 191 194 205 213 213 196 192 215 215 234 237 169 223 228 236 255 251 251 293 291 217 275 247 232 240 244 253 207 194 195 193
181 168 175 165 171 180 168 164 164 189 179 181 167 178 201 205 212 201 195 209 220 219 213 240 211 232 218 229 240 199 196 235 259 285 290 274 312 247 233 234 241 259 211 196 194
172 120 169 168 171 160 163 174 156 178 179 178 201 188 166 184 202 183 202 205 215 216 217 235 221 217 232 227 234 222 228 234 291 276 281 295 273 289 204 235 240 226 260 208 198
175 135 187 178 172 170 168 167 154 176 153 179 191 192 191 195 191 200 207 211 221 206 227 216 226 233 222 222 230 227 248 286 291 292 326 330 334 340 172 252 236 242 236 235 202
168 173 174 166 177 168 164 170 165 145 174 191 195 201 185 195 211 200 207 220 212 214 223 243 231 233 242 205 223 298 303 297 299 421 438 335 408 456 151 299 244 233 247 254 225
175 171 176 171 159 164 158 178 178 182 196 194 201 194 191 191 209 210 222 210 221 223 233 237 232 231 246 219 269 300 299 373 417 408 417 414 212 397 451 468 276 243 233 257 255
176 170 170 177 169 162 179 173 176 191 183 185 192 186 202 198 207 217 220 211 228 229 244 234 234 224 211 241 300 297 362 396 385 394 440 428 435 223 449 543 353 252 239 235 219
173 166 179 171 177 167 172 177 192 188 185 204 209 203 203 203 217 222 221 229 228 237 233 237 239 205 265 302 299 294 387 377 397 396 390 384 399 407 347 380 521 300 232 233 243
166 168 174 172 166 169 177 182 181 168 185 199 200 213 205 223 222 223 226 154 224 220 225 208 195 259 291 310 292 396 372 398 379 374 395 431 431 458 458 353 425 369 256 230 234
171 183 181 185 169 167 185 180 188 198 185 209 207 201 217 224 213 228 226 227 228 235 220 213 262 262 310 292 354 374 359 371 360 356 390 422 449 449 472 477 442 420 299 260 246
181 177 177 156 165 180 188 183 186 195 195 199 206 219 221 232 221 218 149 179 235 229 233 222 266 310 298 283 381 368 384 360 335 348 356 355 377 478 462 463 421 430 276 288 279
141 169 180 181 177 185 184 185 202 209 219 207 216 228 226 239 228 225 233 217 232 214 189 278 304 296 283 326 374 385 359 342 335 335 335 333 346 397 408 455 437 412 318 284 267
191 181 173 188 187 182 195 206 218 224 209 226 221 233 226 223 227 219 214 214 249 287 290 307 299 288 276 375 357 370 346 328 328 319 329 339 339 358 395 407 385 372 317 286 227
174 181 181 183 196 195 198 199 209 221 227 232 221 225 219 211 227 221 235 237 292 266 312 308 288 283 291 368 343 366 343 320 336 345 311 326 324 374 379 352 372 360 311 288 264
180 175 188 193 204 206 198 210 225 226 240 207 222 218 223 212 169 213 228 250 292 296 307 296 284 270 379 352 338 356 331 311 320 317 322 324 348 347 364 352 352 372 323 286 273
188 188 215 207 173 206 211 211 208 228 205 202 220 225 237 223 212 233 240 282 287 304 293 285 275 262 367 345 329 337 327 306 316 309 309 317 343 310 311 307 341 347 319 294 277
214 209 201 208 195 208 215 192 221 230 205 206 178 196 236 228 236 224 285 280 297 296 292 279 211 297 362 343 328 322 323 305 305 307 323 318 320 318 302 315 336 347 328 303 285
187 198 202 212 203 214 216 228 211 211 220 230 234 202 175 226 237 245 284 294 294 291 285 276 259 372 361 344 322 321 316 300 299 294 300 303 314 319 316 321 324 357 320 311 293
206 193 196 209 210 210 209 216 224 211 207 216 213 225 218 237 250 287 284 283 234 287 285 266 260 381 367 346 323 313 318 318 321 293 300 287 296 294 344 324 343 361 337 321 298
190 217 190 211 217 201 237 209 211 199 237 222 186 218 220 254 273 278 287 285 171 283 279 261 282 386 362 341 317 314 305 308 313 299 293 298 293 296 307 316 307 328 367 331 315
219 207 213 205 204 227 208 225 193 221 213 216 215 232 243 264 275 273 281 258 282 279 269 256 299 383 357 344 346 319 310 301 296 290 290 290 280 292 300 300 309 311 336 345 323
208 207 192 198 214 211 208 195 209 215 217 215 216 185 254 266 271 284 280 159 277 278 261 247 291 381 356 335 332 328 308 305 292 292 290 284 300 303 296 305 294 309 318 334 319
200 209 203 211 222 210 220 210 211 205 214 146 210 240 258 266 266 277 279 177 272 268 255 237 289 386 356 333 327 364 309 311 302 291 292 286 291 288 291 279 292 288 310 305 327
205 199 222 205 214 217 203 205 214 209 170 230 238 239 251 266 260 273 280 276 267 258 250 248 286 384 357 328 330 345 341 303 314 302 298 289 288 289 287 286 292 288 289 301 312
206 203 207 210 221 209 204 216 224 193 231 230 236 218 257 265 267 274 279 271 269 255 243 249 280 358 365 333 314 330 334 313 300 301 311 297 300 292 292 281 287 291 292 297 310
Wind_Speed
51 43 48 51 44 51 51 53 52 52 54 56 59 47 56 53 53 53 50 49 50 49 49 53 53 54 56 56 59 75 77 74 81 80 83 93 95 97 102 93 93 92 87 70 69
53 48 51 53 55 55 54 54 55 57 60 65 62 60 60 58 58 58 58 56 57 57 56 59 59 59 61 69 65 66 71 68 85 86 73 90 92 100 92 100 100 92 90 90 86
48 46 53 56 58 57 57 58 58 61 63 66 69 68 63 64 64 63 63 59 58 63 62 65 65 66 65 68 73 77 76 80 83 81 88 84 93 96 96 96 95 102 93 92 89
48 54 51 56 57 57 58 59 58 68 67 67 59 61 68 69 67 66 65 67 69 70 67 69 65 68 68 76 79 68 71 83 83 92 86 90 86 100 98 98 99 94 104 97 93
51 47 56 57 56 60 61 64 57 68 69 69 74 71 63 69 74 66 74 74 75 75 77 77 73 71 76 78 80 82 79 75 93 96 97 97 89 87 95 102 106 102 96 103 99
51 53 53 53 58 61 64 64 60 70 61 73 77 77 75 75 75 76 77 79 76 76 81 75 78 79 74 79 87 84 91 88 91 95 97 98 98 102 48 112 109 104 101 105 104
57 56 56 62 60 63 66 68 69 59 72 81 81 79 76 80 78 78 82 78 79 81 82 81 80 80 85 77 86 84 83 88 93 67 63 72 62 68 45 98 116 106 101 100 110
58 59 59 60 62 63 67 73 74 78 81 81 80 79 81 82 83 83 83 82 83 81 85 83 81 82 87 84 84 83 86 64 48 53 57 65 87 58 57 72 104 115 103 101 97
63 64 67 67 68 67 71 74 77 84 81 82 84 81 85 83 86 81 81 85 85 88 85 84 83 78 79 89 80 82 63 52 48 50 51 49 43 101 49 45 94 109 109 99 104
64 66 67 70 72 73 75 78 84 85 86 85 85 86 87 87 85 84 85 83 87 87 86 87 90 75 85 85 78 79 46 49 41 38 38 37 34 37 67 67 55 103 104 100 98
67 68 70 72 74 77 82 83 82 74 87 89 88 87 89 84 82 85 84 63 87 84 86 70 71 87 86 77 76 40 47 36 33 33 30 28 30 28 35 70 64 99 108 102 98
71 73 72 75 75 78 84 83 86 88 86 86 87 88 86 83 83 87 88 89 89 90 84 78 87 83 77 72 53 43 43 24 26 26 17 19 18 24 27 38 61 81 106 106 101
74 72 74 70 76 83 89 87 87 88 89 89 90 87 86 84 83 84 58 71 91 89 92 74 81 76 69 68 38 40 18 21 22 13 14 16 28 7 16 30 68 71 88 104 104
66 74 80 84 81 88 89 90 91 90 83 87 86 86 85 84 84 85 84 88 90 86 68 81 73 69 65 56 33 23 13 19 19 18 13 4 13 10 10 21 44 68 95 100 104
85 80 78 89 90 89 95 93 91 86 89 86 86 84 85 87 85 87 91 92 88 82 78 70 66 65 62 33 32 15 10 15 15 11 13 6 8 12 9 30 54 72 95 100 106
81 86 86 89 96 93 93 93 93 90 89 87 87 86 88 88 86 92 87 92 84 68 70 64 61 60 61 27 27 13 6 11 10 11 4 5 5 3 15 40 50 70 96 100 100
85 82 94 97 96 93 94 93 93 89 86 88 84 89 81 94 61 94 91 88 81 69 66 61 58 56 24 24 20 6 6 9 7 6 5 10 5 19 16 42 50 48 93 104 108
95 95 89 93 83 90 91 91 91 85 89 88 89 84 79 77 95 91 92 83 78 70 63 58 56 55 23 18 18 8 1 9 3 6 5 10 28 28 22 36 30 55 89 104 108
91 90 90 90 90 90 91 89 84 80 90 92 63 90 82 87 91 89 89 81 75 67 62 56 52 60 19 17 14 10 3 6 4 1 8 9 25 30 27 31 32 49 72 98 104
92 92 91 90 91 92 87 81 84 88 86 83 79 70 64 89 95 93 84 79 73 64 60 55 53 24 15 12 12 5 2 4 4 3 4 5 14 14 24 25 25 32 66 85 99
90 90 92 91 92 90 91 86 81 90 91 83 89 84 85 98 100 86 81 77 58 64 56 52 52 18 10 9 10 6 2 6 9 8 5 10 10 12 12 17 17 24 50 69 91
88 90 91 92 90 91 85 89 89 90 84 79 68 84 86 102 91 80 75 72 44 61 52 50 55 10 9 8 9 8 4 7 8 13 10 10 17 15 14 16 23 23 28 52 71
90 93 91 92 92 88 88 80 89 84 83 84 85 100 102 96 84 77 72 60 61 56 48 48 57 8 8 6 7 11 9 11 9 11 13 14 17 14 18 19 20 26 26 36 55
89 90 89 94 96 90 91 89 89 86 89 87 88 70 101 91 83 75 69 35 57 51 46 46 53 7 8 8 5 13 10 15 12 10 12 14 13 13 14 16 22 19 25 30 49
91 90 93 93 89 91 81 90 85 89 86 55 86 104 91 86 82 73 68 37 54 47 45 43 51 8 8 8 6 8 10 15 18 14 14 13 12 16 16 25 21 26 22 34 33
90 92 95 92 92 88 89 95 87 87 64 104 103 97 92 83 79 69 64 57 50 43 43 45 50 12 6 7 4 6 17 10 16 15 16 15 15 17 21 25 25 29 32 31 37
94 94 92 92 84 84 93 86 96 76 100 101 99 78 85 79 76 66 58 52 48 42 41 45 47 26 5 7 8 6 10 11 9 11 17 15 17 17 21 25 26 29 32 33 36
Wind_Direction
306 325 319 322 313 326 322 332 331 326 331 335 335 325 331 327 324 320 316 312 315 301 302 289 292 293 289 273 271 259 261 251 252 249 247 243 243 243 241 239 240 237 236 234 230
310 322 321 320 321 324 321 322 323 329 330 336 333 330 329 325 323 319 320 317 317 311 303 306 297 296 296 267 280 276 262 275 256 252 254 245 245 242 246 240 239 239 237 235 238
324 312 319 319 320 322 321 327 322 327 328 331 331 329 326 324 322 320 320 315 309 313 309 310 304 281 294 292 291 293 288 277 284 272 255 252 248 244 244 242 237 235 237 237 234
323 315 317 316 316 320 317 318 320 329 328 327 315 318 326 325 321 321 318 317 315 314 310 311 300 301 296 298 295 278 271 283 283 278 270 257 252 242 244 243 239 233 232 234 235
314 302 313 314 314 317 316 321 316 325 325 325 329 326 315 321 321 317 320 317 316 314 315 311 307 302 304 300 295 287 288 277 277 275 273 269 259 244 240 241 241 233 230 229 233
311 306 319 314 314 316 317 318 313 322 312 323 325 323 323 321 319 319 318 318 315 313 313 311 310 308 299 298 297 295 293 282 278 275 270 265 259 253 242 235 240 236 227 226 228
306 310 313 312 317 316 315 318 316 308 320 324 322 322 320 320 319 319 318 314 315 313 312 304 309 306 304 300 300 298 292 286 285 279 274 248 252 255 245 233 232 236 232 224 224
308 309 314 312 314 315 314 319 321 322 325 323 321 321 319 319 320 318 314 315 312 312 311 309 310 309 304 302 302 300 293 294 283 282 273 266 238 249 246 233 226 229 230 228 220
313 312 313 316 315 313 320 318 319 322 320 319 320 319 319 318 319 316 314 315 315 315 310 310 310 310 305 305 306 301 301 291 284 285 279 273 268 233 245 240 221 223 227 225 219
310 311 316 314 316 314 318 320 321 321 320 319 320 319 319 318 318 315 315 316 316 313 314 311 311 307 312 314 310 309 297 295 303 292 290 280 269 250 238 239 213 216 220 222 225
309 313 314 315 313 315 318 319 319 316 319 319 320 319 319 319 318 316 316 308 319 319 317 314 312 313 317 315 313 308 301 316 304 302 299 276 268 260 238 232 210 206 218 218 220
311 312 314 316 313 313 317 317 318 318 318 319 319 317 318 320 320 319 320 317 316 313 316 319 312 317 319 318 318 309 309 303 313 320 14 347 289 246 232 213 192 205 209 216 218
312 313 315 310 310 315 318 316 317 318 319 318 318 321 321 318 320 319 313 314 312 316 316 315 319 320 322 320 315 310 320 306 314 339 35 24 7 233 203 199 190 193 206 210 214
303 311 315 316 315 317 316 316 318 318 319 318 318 321 321 318 321 319 315 322 314 323 310 318 322 322 322 323 322 330 313 313 324 351 350 6 357 3 169 172 175 196 202 208 211
313 315 311 316 317 315 316 318 319 320 319 321 322 321 322 324 320 320 323 324 325 323 321 324 325 326 325 331 325 335 317 315 330 4 351 43 336 8 155 155 176 196 196 207 218
310 314 315 315 315 316 317 318 319 322 323 321 324 323 322 324 319 319 318 323 329 331 330 328 328 328 329 334 328 345 336 326 337 335 340 337 329 72 143 171 182 190 194 203 208
312 312 314 314 315 316 316 318 323 323 321 323 323 323 317 323 314 321 325 326 330 334 334 332 332 329 328 333 333 12 344 313 336 9 56 36 59 108 112 179 188 179 193 199 206
313 312 313 314 311 317 317 320 321 322 322 322 321 315 323 323 322 322 326 333 334 336 335 335 333 333 326 326 321 347 322 302 5 15 49 86 126 134 154 177 198 193 194 199 202
310 311 313 315 315 318 319 317 321 319 321 322 321 324 326 324 327 323 335 332 336 337 336 335 325 338 320 319 314 341 122 299 282 55 138 115 146 157 188 199 198 190 195 199 205
308 311 313 315 316 319 320 318 319 316 325 322 318 319 323 326 329 330 335 333 336 338 337 335 333 331 316 306 305 332 292 251 249 246 119 132 135 165 193 208 197 192 196 200 204
311 310 313 316 317 318 319 318 316 317 318 319 316 327 321 330 332 334 335 333 334 339 339 336 335 334 309 292 288 296 193 163 168 219 177 167 176 185 141 172 171 196 200 205 205
308 312 311 315 317 316 315 319 318 317 331 326 322 323 324 332 334 335 335 333 330 340 338 336 339 324 309 281 285 250 238 191 167 186 198 161 160 183 161 157 186 181 192 202 206
309 311 314 314 316 316 317 314 317 320 324 323 324 330 332 334 335 335 335 334 336 340 338 336 345 331 301 288 225 214 215 204 204 190 203 194 184 181 179 181 176 187 177 191 202
308 311 311 313 315 315 315 315 312 322 328 327 327 328 332 334 336 336 335 325 338 339 338 335 347 325 297 293 257 204 215 199 214 208 200 194 198 210 188 180 189 188 192 190 200
307 310 311 312 312 312 311 312 317 324 327 319 325 329 333 334 337 336 335 325 340 339 336 335 350 329 286 285 266 213 225 207 205 208 212 199 198 178 178 187 187 195 193 201 202
307 309 309 310 311 311 310 310 319 322 311 327 328 330 331 333 336 334 333 337 339 337 334 333 352 338 283 284 280 174 203 218 218 214 216 208 201 199 190 194 195 199 201 203 208
305 308 308 309 309 308 309 319 328 322 324 325 328 329 330 332 334 333 331 334 338 336 329 336 351 350 291 261 286 191 197 219 219 225 234 219 220 204 206 206 207 211 214 215 214